Theta_e
310 310 310 310 310 310 310 311 311 310 310 309 309 309 307 306 305 307 308 308 308 307 308 309 309 307 306 307 307 307 307 307 305 305 306 306 306 306 306 306 305 306 306 306 305 306 305 306 306 305 306 306 305 306 304 305 310 313 316 317 311 309 308 306 308 306 304 305 303 300 301 303 304 302 300 300 301 302 302 303 302 300 300 299 300 301 300 301
309 310 310 310 310 310 310 310 311 311 310 310 309 309 310 308 306 306 307 308 309 308 308 309 308 307 307 308 307 307 308 307 306 304 305 306 306 306 306 305 305 306 305 305 305 305 306 307 306 305 308 308 304 305 306 303 309 317 319 317 311 312 307 302 305 304 303 306 304 302 301 302 303 303 300 302 305 302 302 303 302 302 302 301 300 300 300 300
309 309 309 310 310 309 310 310 310 311 311 311 309 309 310 309 308 306 306 307 308 308 308 308 308 307 307 307 307 308 308 307 305 304 305 306 307 306 305 305 305 306 306 305 305 304 306 307 304 305 309 308 304 306 309 305 308 312 315 314 311 312 306 301 303 303 303 305 306 304 300 300 301 301 301 303 305 303 303 303 303 304 304 303 301 299 300 299
309 309 309 309 309 309 309 309 310 310 311 311 310 310 310 310 308 307 307 306 306 308 308 309 308 308 308 307 308 309 307 306 305 304 305 307 307 306 305 305 305 306 306 305 305 305 305 305 303 305 308 309 308 307 307 305 306 308 311 311 308 307 307 304 304 303 302 302 305 305 300 302 301 300 301 302 304 305 304 302 303 305 305 304 301 299 299 298
308 309 309 309 309 309 309 309 309 310 310 310 310 310 310 311 310 308 308 306 306 307 308 310 309 309 308 307 309 309 308 308 304 304 306 306 307 306 305 305 305 306 306 305 305 304 304 303 303 308 309 309 312 309 305 302 303 307 306 304 304 305 305 304 302 302 300 300 303 303 302 303 300 300 301 301 303 305 306 303 302 304 303 303 301 298 298 297
307 307 308 309 309 309 309 309 309 309 310 310 310 310 310 311 311 310 308 306 307 307 309 310 310 310 308 308 310 309 309 307 304 305 307 306 307 306 305 305 306 306 305 305 305 304 304 304 305 311 311 309 309 307 305 301 302 308 305 301 303 304 303 302 301 301 299 301 304 303 302 301 300 302 302 300 302 303 304 303 303 302 299 298 297 297 300 301
306 306 306 307 307 308 308 308 308 308 309 310 310 310 310 311 312 310 308 306 306 308 309 309 309 309 308 309 308 312 312 305 304 306 306 307 307 306 305 305 306 305 305 305 304 305 306 306 308 311 311 308 305 304 305 302 302 311 308 302 302 300 301 302 300 301 300 303 304 301 300 301 302 302 300 301 302 301 301 299 298 297 295 295 297 298 299 299
305 305 306 305 306 307 307 308 308 308 308 309 310 310 310 311 312 311 309 306 306 309 308 307 309 307 309 309 307 315 314 304 305 307 306 307 307 306 305 305 306 305 305 305 305 306 305 306 307 308 308 306 304 304 303 303 305 310 307 303 301 300 301 302 300 302 302 301 301 300 302 303 303 301 299 303 302 300 300 298 298 297 297 297 299 300 298 297
305 305 306 306 306 305 306 307 307 308 308 309 310 310 310 310 312 311 310 308 306 308 308 307 308 307 308 308 308 312 310 304 306 306 306 307 306 306 306 305 306 306 305 305 304 304 305 308 306 306 307 305 304 304 302 304 305 305 305 304 303 302 301 301 301 303 303 301 300 301 305 305 300 299 302 304 302 301 301 300 300 299 300 301 300 299 298 298
304 305 305 306 306 306 305 306 307 308 308 308 309 310 310 311 312 311 310 310 307 306 307 307 307 308 308 308 311 310 306 306 306 306 307 306 306 306 306 305 306 306 305 304 304 304 304 306 304 303 306 305 304 304 302 304 304 302 305 304 302 303 301 301 302 303 303 301 301 303 306 304 298 299 304 303 301 301 303 303 303 301 302 302 300 298 296 296
305 304 305 305 306 306 305 306 307 308 308 308 308 310 310 311 312 312 311 311 309 306 307 308 308 308 306 310 316 310 305 307 306 306 307 305 306 307 307 307 306 305 305 304 304 304 304 302 300 301 304 305 304 304 302 302 301 302 305 303 303 304 302 301 303 303 302 301 301 301 302 302 298 300 304 304 302 302 303 306 305 303 304 302 300 298 295 294
305 305 305 305 305 306 306 306 306 308 309 308 308 309 310 311 312 312 312 312 310 307 307 309 309 308 307 310 315 309 305 307 306 306 307 306 306 307 307 307 306 305 304 304 304 304 304 302 301 304 305 303 304 304 302 301 301 302 303 302 307 312 306 302 303 302 301 302 300 299 303 305 301 303 308 304 302 302 304 307 306 303 302 301 300 298 296 294
304 305 305 305 305 306 306 306 306 308 308 308 308 309 311 312 312 313 312 312 311 308 306 310 310 308 308 308 308 306 305 307 306 307 307 305 306 306 307 308 308 308 306 304 303 303 304 303 303 304 302 304 305 301 302 302 302 303 303 305 313 317 310 303 303 302 301 303 301 301 308 312 307 307 309 302 300 303 306 307 306 303 301 301 300 298 298 295
304 305 305 305 305 305 306 306 306 308 308 309 308 308 311 311 313 314 313 312 312 309 306 308 310 307 307 307 305 305 306 306 306 307 306 305 307 306 306 309 309 309 308 305 303 303 303 302 302 303 300 303 301 299 309 311 307 306 304 311 315 312 310 306 304 305 302 303 303 302 308 313 309 308 306 301 300 303 306 305 303 302 301 301 300 298 299 296
304 304 305 305 305 305 306 306 306 308 309 308 308 308 310 312 313 313 313 314 312 308 306 308 310 308 308 307 304 305 305 305 307 306 306 306 307 308 307 308 309 310 310 307 307 304 303 303 304 305 301 302 303 306 318 317 316 314 306 316 317 309 314 311 303 305 304 301 303 304 308 312 309 309 307 301 301 302 303 304 303 304 304 303 302 300 300 298
303 304 304 305 305 306 306 306 307 308 309 308 308 309 310 312 313 313 314 313 311 308 307 310 310 308 310 308 305 306 305 305 306 306 306 305 307 310 310 308 309 311 311 309 310 307 305 308 306 303 302 307 315 322 320 317 324 321 310 314 315 311 317 310 302 303 303 303 305 305 307 310 309 310 308 302 302 302 304 307 307 307 307 305 304 301 302 301
303 303 304 305 305 306 306 306 307 308 309 308 309 310 311 313 314 314 314 311 309 308 308 310 308 307 308 307 306 306 305 304 305 306 305 305 309 311 310 311 310 309 311 309 309 310 309 311 307 305 308 312 317 324 319 312 315 317 314 313 310 310 311 308 305 302 302 306 305 306 306 308 308 306 304 301 302 303 306 309 310 309 308 306 304 303 303 302
303 303 304 304 305 306 306 306 307 308 309 308 310 311 312 314 315 314 311 308 308 307 308 309 307 308 307 306 306 305 304 305 306 306 305 305 309 311 310 310 308 309 315 312 310 313 312 311 312 313 315 315 319 324 318 310 307 307 310 308 307 310 309 309 310 303 303 308 306 306 307 308 307 302 301 302 302 305 308 308 309 310 308 306 306 307 307 305
302 303 303 304 305 305 306 306 306 308 308 309 311 312 314 315 316 314 309 308 310 307 307 308 310 312 309 307 305 304 305 306 307 305 304 306 309 310 308 307 311 314 316 316 314 315 314 313 313 312 312 315 316 315 312 308 307 306 307 307 308 311 310 309 309 304 302 307 308 308 308 308 307 304 306 305 301 305 310 310 312 312 310 309 310 312 311 311
302 303 303 304 304 305 306 306 307 308 308 310 311 313 318 320 320 322 318 314 311 309 311 313 312 312 310 307 305 307 307 306 308 305 304 307 308 310 307 308 321 322 316 319 317 311 312 317 311 306 308 309 305 305 307 306 306 309 312 314 312 312 314 312 307 304 302 306 309 307 307 309 307 307 308 306 304 309 312 315 319 317 315 314 314 316 314 313
301 302 303 304 304 305 305 306 307 309 309 310 311 314 318 316 314 319 319 314 306 303 312 313 307 309 309 306 306 307 307 307 308 304 304 306 306 308 310 314 320 315 315 318 317 312 314 315 308 302 302 304 303 303 305 307 309 313 314 316 315 311 314 310 303 304 305 305 309 307 308 310 308 307 307 307 309 311 311 314 319 318 315 316 316 316 314 312
300 302 303 303 304 305 305 306 307 309 309 309 311 311 310 310 310 310 310 313 309 303 308 307 305 311 308 304 307 305 306 309 309 305 305 306 308 309 314 320 318 312 318 319 316 317 318 306 303 301 301 303 305 306 307 310 314 317 314 313 312 308 310 307 301 306 307 305 309 312 309 308 307 306 310 313 314 312 310 309 312 315 317 317 316 314 313 312
300 301 302 303 305 304 305 306 307 309 310 308 308 308 307 306 308 308 307 312 313 308 309 308 307 314 311 307 306 305 306 307 308 309 305 307 312 312 315 324 323 315 319 323 316 314 312 303 301 301 303 305 308 307 307 309 312 316 313 309 310 308 307 305 302 307 307 302 307 311 308 309 308 309 313 312 310 310 311 310 312 314 317 316 313 312 312 313
301 300 301 303 304 305 306 306 307 309 310 309 307 308 307 306 307 308 308 309 312 313 309 305 307 314 313 307 305 307 309 307 307 307 304 309 315 311 314 322 320 313 314 322 322 316 309 302 300 303 304 306 308 308 310 309 310 316 316 313 314 310 304 306 306 306 307 302 304 309 310 316 316 313 314 310 308 311 311 314 318 318 316 315 314 314 313 311
302 300 301 302 304 305 306 307 307 307 310 310 308 308 306 307 306 306 310 311 315 318 307 302 307 310 307 305 305 307 309 307 306 304 303 309 313 311 311 310 309 308 314 315 316 313 307 299 299 306 309 309 309 310 313 311 309 313 313 309 309 309 305 310 312 308 309 307 304 305 310 323 325 319 316 315 316 317 313 315 319 320 319 318 318 317 315 313
304 301 300 301 303 304 306 309 307 306 312 310 307 307 305 307 307 306 314 317 320 323 309 302 306 305 304 305 307 307 308 307 303 302 304 306 308 308 307 306 304 307 314 312 307 305 304 299 301 309 313 312 310 310 308 308 309 304 306 304 307 309 308 312 313 307 308 307 303 303 308 317 322 320 316 316 320 320 317 318 320 322 321 318 318 317 316 314
308 303 300 300 302 304 308 309 306 308 312 309 306 306 305 307 306 305 315 319 319 321 310 304 304 304 306 304 305 308 305 308 304 303 305 304 305 307 307 309 305 307 311 309 304 304 303 304 305 309 312 310 308 307 305 305 307 305 305 305 309 308 306 309 310 307 309 309 307 309 310 309 314 317 314 311 314 316 315 316 318 322 322 319 319 318 317 315
311 306 302 301 300 303 308 307 306 308 308 307 305 305 306 308 307 310 320 318 316 316 309 307 305 305 307 303 305 311 309 309 309 304 303 302 305 308 312 313 309 312 309 307 306 308 303 306 308 309 311 309 307 306 305 304 303 306 304 304 306 305 307 309 310 313 311 308 312 315 307 307 316 322 316 309 308 311 313 315 316 319 323 322 320 319 319 317
312 309 304 301 299 304 307 305 305 308 307 306 305 306 307 306 308 314 319 316 313 313 309 308 305 305 308 306 307 313 310 308 309 307 304 303 302 306 310 311 312 313 305 306 314 310 302 304 303 305 307 307 306 304 304 306 303 306 303 304 306 306 309 310 311 314 311 309 316 314 305 306 315 322 318 309 308 313 314 315 315 317 320 320 320 321 320 318
312 312 307 302 299 302 305 304 307 310 308 305 306 307 306 309 318 318 315 316 313 310 307 307 307 305 308 308 308 310 308 307 311 309 308 307 306 308 306 305 312 316 310 312 315 307 301 301 300 302 304 304 303 302 302 304 304 303 305 307 308 307 307 309 313 312 309 316 322 311 306 307 308 318 321 310 310 315 314 313 314 314 316 317 321 323 320 319
312 313 309 303 299 300 303 306 309 309 306 305 306 306 306 315 327 321 315 317 312 311 309 306 310 312 311 311 311 311 308 308 311 311 311 311 309 311 307 305 310 317 326 325 310 302 302 304 304 302 301 302 304 305 301 301 303 304 310 313 311 311 308 310 320 314 308 324 321 309 309 307 305 318 325 316 312 312 312 314 314 313 315 316 322 326 322 321
311 313 310 304 300 299 301 304 306 304 304 306 306 311 316 317 319 319 319 320 313 314 311 306 310 314 313 311 311 312 309 307 309 311 313 310 308 312 312 312 309 309 323 323 307 305 308 308 303 299 300 301 304 306 302 302 305 306 313 317 314 318 313 315 325 314 309 320 311 306 309 305 307 314 314 315 313 309 311 315 314 313 315 317 322 326 323 322
311 313 311 305 301 299 300 301 303 303 304 305 308 319 323 317 318 320 320 319 310 308 309 308 310 310 310 311 310 310 307 306 308 308 308 307 308 314 313 311 308 305 315 314 304 307 311 308 302 302 304 299 300 306 306 308 308 308 313 314 314 316 307 311 320 309 307 312 304 303 307 306 311 309 308 312 309 307 308 308 309 311 315 321 323 324 324 323
310 312 312 308 302 300 301 300 302 304 303 306 314 320 316 315 323 321 319 320 310 307 310 309 309 309 309 310 310 308 307 307 307 306 308 307 309 315 313 306 305 312 319 311 306 310 310 309 306 304 305 300 299 305 306 308 310 310 310 307 312 316 304 308 320 313 310 313 308 303 305 315 317 305 307 310 306 305 305 305 305 305 308 315 318 319 323 325
310 312 312 308 302 302 303 302 303 303 303 311 319 319 313 315 320 319 322 322 312 310 309 306 309 311 312 314 311 308 307 307 307 306 307 309 311 318 319 314 309 311 314 311 310 307 303 305 305 300 301 300 303 302 299 305 308 308 305 304 309 314 310 309 310 311 310 312 316 309 308 317 313 304 306 308 310 311 309 308 309 309 308 309 314 319 324 328
310 312 311 306 303 304 304 304 305 302 306 315 315 313 317 318 317 319 320 314 310 312 310 308 313 312 313 317 313 307 305 306 307 306 307 308 310 313 317 320 314 310 311 314 315 308 304 307 303 299 301 298 300 301 298 304 306 303 306 311 308 306 315 315 303 301 305 308 314 311 310 312 307 307 312 311 314 316 313 313 313 313 311 310 316 321 325 329
310 310 308 306 305 305 304 306 306 303 309 315 311 315 320 317 315 320 318 309 308 312 310 313 317 314 314 316 314 309 307 308 307 308 313 311 310 312 313 314 310 308 310 308 312 314 311 310 304 299 303 299 296 299 299 300 303 304 307 311 305 301 313 316 305 308 310 310 314 310 309 311 307 309 315 313 314 317 319 315 310 311 311 312 317 320 325 329
309 306 305 306 307 306 305 307 305 305 312 311 309 316 315 309 310 316 315 310 309 310 309 314 315 312 314 313 313 309 307 311 312 311 314 312 312 314 313 311 308 307 308 303 304 311 308 311 310 299 301 301 296 299 303 300 298 302 304 302 302 308 316 311 308 316 312 306 315 316 309 306 305 310 314 313 316 320 321 314 309 311 310 313 318 319 324 327
306 305 307 307 307 307 306 306 305 308 313 310 309 314 312 310 312 313 314 312 310 310 312 315 311 308 312 312 313 309 306 313 315 311 310 309 310 310 307 310 309 307 307 303 303 310 306 308 314 301 298 301 299 300 307 306 299 299 302 301 303 310 318 313 308 314 313 308 313 318 316 310 307 312 316 314 316 320 322 316 311 310 310 313 316 319 325 326
304 306 311 307 306 309 307 305 306 309 312 311 311 313 309 310 312 311 311 310 310 310 312 315 309 307 312 311 311 310 307 311 314 311 310 307 309 311 306 308 311 308 305 301 303 311 304 301 313 307 297 301 306 305 307 309 305 303 306 308 305 303 308 309 305 306 313 317 314 311 314 314 311 311 313 311 312 315 319 318 312 309 310 313 313 318 327 327
303 306 310 306 305 309 305 304 308 310 311 309 309 309 308 309 311 312 309 307 309 309 308 312 311 311 314 312 311 311 307 310 312 309 309 307 308 309 305 307 314 310 306 304 305 310 304 306 319 314 304 308 313 304 299 302 303 304 308 311 308 306 309 310 308 306 305 310 312 309 310 312 311 311 311 310 310 311 314 314 312 310 310 312 313 318 325 326
304 307 309 306 306 307 306 308 309 307 310 310 308 308 309 310 310 312 309 305 307 308 306 310 311 312 315 313 313 312 309 311 309 307 310 310 309 308 304 302 309 310 310 312 311 309 307 309 315 315 314 311 304 297 295 297 296 298 302 305 306 309 313 313 315 314 305 302 305 307 309 310 311 313 312 311 310 308 306 306 309 310 309 311 315 322 325 323
305 306 307 306 307 306 306 309 309 306 310 312 307 305 308 310 309 309 309 307 308 308 307 309 309 310 313 311 310 310 309 310 310 311 312 312 310 308 301 299 304 307 308 310 309 306 307 307 308 314 321 312 300 296 295 294 296 301 303 302 304 308 313 317 320 317 310 306 305 305 308 312 315 315 313 312 311 308 304 302 305 307 309 312 316 321 325 325
305 305 305 306 307 305 306 311 311 309 309 308 306 305 306 308 310 309 310 310 309 309 309 310 309 308 310 309 308 311 310 309 310 311 310 311 309 302 297 297 301 305 307 309 309 306 305 310 311 310 315 315 310 306 304 299 299 306 308 303 303 307 308 310 309 306 306 312 310 309 313 314 315 317 314 312 312 313 311 307 305 307 311 316 317 318 320 323
306 306 305 305 305 304 307 311 311 310 310 307 305 307 306 306 309 311 310 310 311 311 310 309 309 308 308 307 306 308 308 307 310 309 306 308 309 302 299 299 299 305 307 304 306 306 305 311 311 308 308 309 313 318 320 315 306 304 307 304 302 304 305 307 309 305 308 312 308 310 315 312 309 313 311 311 313 312 311 312 309 307 309 313 315 315 316 318
306 307 306 308 308 306 306 306 306 307 309 308 306 308 307 305 307 309 308 308 310 310 309 308 309 308 307 306 305 308 308 305 306 307 306 310 312 306 300 299 300 304 303 301 303 307 308 308 308 311 311 310 317 321 314 311 310 309 309 306 303 302 302 308 313 310 309 308 306 309 311 307 307 308 306 308 311 311 312 312 310 308 307 309 310 311 311 310
305 306 306 308 308 307 306 306 306 307 308 307 307 308 308 306 306 307 307 307 307 308 308 309 309 307 307 308 308 309 311 306 304 305 307 311 312 305 298 298 302 303 302 303 304 305 307 308 307 310 309 308 313 313 305 306 310 312 313 310 305 301 302 307 310 308 308 309 309 309 307 305 307 307 306 307 307 308 309 309 310 309 307 307 306 306 307 307
304 305 305 304 305 307 308 307 307 307 307 306 307 307 308 307 306 305 306 307 306 307 307 307 309 309 310 312 311 309 310 308 306 306 307 310 311 306 301 300 300 302 303 303 301 304 309 311 309 306 306 308 306 305 307 308 307 309 313 313 307 302 302 305 306 306 307 309 310 310 308 308 308 306 306 306 306 307 306 306 307 307 305 305 305 305 306 306
302 305 305 304 304 307 307 305 305 307 306 305 307 308 307 307 307 306 308 308 307 309 308 307 310 312 311 311 311 309 309 309 308 308 309 311 310 308 308 306 302 299 301 302 301 304 308 313 312 305 304 310 307 305 306 306 306 308 309 309 309 305 303 303 304 305 305 307 310 309 307 308 307 305 305 305 306 308 305 305 306 305 306 306 305 305 305 304
301 303 304 303 304 305 305 304 305 307 306 305 306 307 305 306 306 306 307 308 308 309 308 307 308 311 311 310 310 308 308 309 309 310 312 311 309 307 309 312 311 302 299 301 303 301 303 312 313 305 305 314 311 305 304 303 305 307 305 306 308 304 302 302 302 303 304 305 306 305 305 306 305 305 305 305 306 307 305 305 305 304 304 304 304 303 302 302
300 301 302 302 303 304 305 306 305 306 306 306 306 306 305 306 307 305 307 309 308 308 309 310 309 309 310 309 309 308 307 309 311 310 311 311 309 308 307 310 314 310 302 301 303 302 301 308 310 304 308 317 310 305 306 304 302 303 304 307 307 304 303 303 302 303 304 304 305 304 304 305 305 306 308 308 307 307 306 305 304 303 303 303 304 305 305 306
298 299 300 302 303 303 305 307 306 306 307 307 306 306 305 307 308 306 306 309 309 308 309 311 310 309 309 309 309 308 306 308 309 308 309 310 308 308 309 308 309 312 308 302 303 304 303 308 312 308 310 315 307 305 310 307 303 306 308 308 306 303 303 303 302 302 303 304 305 305 305 306 306 307 307 307 307 307 307 306 305 304 305 305 305 306 309 311
Wind_Speed
13 13 13 13 13 13 12 13 13 14 14 13 13 12 10 10 10 8 4 3 3 4 7 7 6 9 10 12 11 11 10 2 5 10 7 7 10 11 9 6 4 3 3 5 6 4 2 3 4 8 5 2 2 0 2 3 3 4 2 3 2 3 2 4 7 6 3 1 3 4 5 7 3 3 1 1 1 3 4 5 6 7 10 14 16 13 7 5
11 12 12 13 13 13 13 12 12 13 14 13 13 12 12 11 10 10 6 4 5 7 9 10 11 12 13 13 12 12 10 4 1 9 8 10 13 11 9 6 4 3 3 4 6 6 4 2 5 7 5 2 2 0 1 1 3 3 3 3 1 5 2 4 7 5 2 2 3 4 3 5 5 4 2 2 4 2 5 8 5 9 14 18 22 22 16 11
10 11 11 11 12 13 13 13 13 12 13 13 13 12 12 11 11 11 9 7 6 7 10 12 13 13 13 12 12 12 6 3 1 3 8 13 13 12 10 7 4 2 3 4 5 5 2 1 2 4 3 1 1 1 2 2 1 2 3 3 2 6 1 2 5 4 4 3 5 3 2 3 4 2 2 3 5 4 7 9 6 10 16 16 15 18 21 17
10 10 10 11 12 12 13 13 13 13 13 13 13 12 11 11 11 11 11 9 9 8 9 11 12 12 12 10 11 8 1 3 1 3 9 14 13 12 10 6 3 2 2 4 4 4 2 1 3 3 2 0 3 3 2 3 1 1 3 2 3 3 1 2 4 3 4 3 5 4 4 2 4 1 1 3 3 7 10 11 11 13 15 13 7 9 17 18
12 11 11 11 11 12 13 13 14 13 13 14 13 13 11 11 11 11 12 10 10 10 7 7 8 9 8 8 8 2 3 3 3 5 12 14 14 12 9 5 2 2 1 4 4 3 2 2 4 4 3 0 4 4 1 3 1 3 2 2 2 2 2 1 2 1 2 4 5 5 5 4 2 1 3 6 5 8 7 8 12 14 13 10 7 7 10 13
13 13 12 12 12 11 12 13 14 14 13 14 14 13 12 11 12 12 14 12 10 9 6 4 5 6 6 5 4 1 2 1 3 9 14 14 13 11 7 4 2 1 2 3 3 2 2 2 4 3 3 2 3 3 1 4 3 2 1 1 2 2 1 1 2 1 3 6 5 5 4 2 2 3 3 7 13 12 4 3 7 9 9 7 6 5 7 10
13 14 14 14 13 12 13 13 13 13 13 14 14 14 13 12 12 13 15 14 9 6 5 3 5 6 5 4 1 3 3 1 5 10 13 13 12 10 7 3 1 1 3 2 2 2 3 3 2 3 4 3 1 1 2 4 4 5 2 1 1 2 0 2 1 1 5 5 4 4 2 2 4 4 1 6 18 16 8 5 5 8 7 6 6 6 8 10
14 14 14 15 15 14 14 13 14 14 13 13 14 14 13 12 12 13 15 15 8 5 5 5 9 8 5 2 1 3 3 2 7 10 12 12 9 9 6 3 1 3 3 1 1 2 3 2 3 4 3 1 2 1 3 2 4 6 3 2 1 0 2 3 1 2 3 3 1 2 1 5 7 2 2 12 18 13 11 11 10 11 10 9 10 11 10 10
15 14 15 15 15 16 15 14 14 14 13 13 13 14 13 12 12 13 15 15 9 5 7 8 11 7 5 2 3 2 3 2 6 11 12 11 7 7 6 3 1 3 2 2 1 2 3 2 4 3 3 2 3 2 3 2 1 2 3 2 2 1 5 3 1 3 2 1 1 1 4 6 5 2 5 14 13 7 6 8 9 8 9 11 11 12 11 10
16 16 15 15 15 16 16 15 15 14 14 13 13 13 13 12 11 12 14 15 11 7 8 8 10 5 5 2 5 2 3 1 6 10 12 11 6 5 5 5 2 1 0 1 2 3 3 3 4 4 5 3 3 2 3 2 2 2 4 4 4 1 4 4 2 5 4 1 1 2 6 6 3 2 5 9 5 5 5 6 7 5 9 11 9 10 9 10
17 17 16 16 16 16 16 16 15 15 14 13 13 13 13 13 11 11 12 15 13 7 7 7 8 5 3 2 5 1 2 3 7 10 11 9 5 6 8 9 5 1 2 3 2 1 1 4 8 5 2 2 3 4 3 3 3 3 4 3 6 4 2 5 5 6 5 1 2 2 4 4 3 1 9 8 2 5 7 8 8 6 9 9 9 9 7 10
17 17 17 17 16 17 17 17 16 15 15 13 13 13 13 13 12 11 12 14 14 7 5 6 6 3 1 4 4 2 2 5 7 9 9 8 6 8 11 10 8 5 3 4 2 2 1 6 9 6 1 3 3 2 2 4 3 1 2 2 7 7 5 7 5 4 5 1 2 2 3 4 2 7 14 7 5 7 7 9 9 7 8 8 8 8 6 10
17 17 17 18 17 17 18 18 17 16 15 14 13 12 12 13 12 12 11 13 14 7 5 6 7 4 1 2 1 0 4 5 8 7 6 7 4 4 9 9 8 8 6 7 6 3 4 4 7 7 2 5 3 1 4 4 3 1 2 3 4 7 5 6 4 4 4 0 1 1 4 6 7 13 14 6 6 7 9 9 9 8 8 8 7 7 7 10
16 17 17 18 18 18 18 19 19 17 16 15 14 12 12 12 12 12 12 13 13 8 6 5 6 4 2 1 2 2 5 4 7 9 7 9 5 1 6 6 5 7 7 9 9 9 9 7 9 8 3 4 3 2 4 6 3 1 3 2 3 3 3 5 3 4 3 0 4 3 2 7 9 12 10 5 3 7 11 12 10 9 9 8 8 7 8 8
16 16 17 17 18 18 19 20 20 19 17 16 15 12 11 11 12 12 12 13 11 7 6 4 4 2 3 1 1 1 4 2 7 13 12 12 8 3 4 3 3 5 6 7 8 10 8 6 8 6 1 2 3 4 4 5 4 4 2 2 3 1 5 6 3 3 1 2 5 4 3 7 9 11 7 3 5 8 10 12 10 9 9 8 8 7 7 8
16 16 17 17 18 18 19 20 21 20 18 17 15 11 10 10 10 11 12 12 8 5 5 3 2 2 3 1 1 1 4 3 8 13 11 12 9 6 5 3 4 4 4 4 5 4 5 6 5 3 2 2 5 5 3 4 4 4 2 2 3 1 4 5 2 3 2 3 5 3 2 6 7 10 8 5 7 9 8 10 10 9 9 8 7 7 7 8
17 17 17 17 17 18 19 20 21 20 19 18 14 11 9 9 9 9 9 9 5 3 2 0 1 3 2 1 0 2 4 5 10 10 9 11 9 7 5 2 3 4 3 2 2 1 5 6 1 1 3 4 3 4 4 3 4 4 3 0 3 2 3 4 2 3 4 2 3 4 2 8 11 12 13 9 7 8 7 9 10 8 8 7 6 7 6 7
17 18 18 18 17 17 18 20 20 21 21 18 15 11 8 8 7 4 5 5 3 2 2 2 4 3 0 3 1 4 7 9 11 8 9 11 7 6 6 3 2 3 4 3 3 3 4 3 2 1 3 5 4 5 3 3 3 2 1 1 3 3 3 4 4 2 7 6 3 4 3 11 14 13 14 10 6 7 8 8 8 8 8 7 6 6 6 7
18 18 18 18 18 17 17 19 20 21 22 18 14 10 7 6 4 1 5 6 1 1 1 2 2 2 3 4 4 8 10 10 8 6 9 11 6 3 5 6 3 3 3 1 3 5 3 3 4 2 0 2 2 3 5 5 4 3 3 3 1 3 4 6 5 4 4 5 5 3 4 10 14 14 14 10 6 5 8 7 6 7 6 6 6 6 7 7
18 18 19 19 18 17 17 19 19 20 21 19 15 9 4 4 3 3 6 6 2 3 2 2 1 0 2 3 6 10 8 4 2 4 10 13 7 1 2 6 6 5 4 1 3 3 4 4 2 3 4 3 3 3 5 5 5 5 4 4 2 3 5 5 3 6 3 3 5 2 5 10 12 15 13 10 8 6 7 7 6 6 6 6 7 7 8 7
17 18 19 19 19 17 16 17 18 19 19 17 14 7 2 2 2 3 5 4 2 4 1 2 3 2 4 5 7 8 3 0 2 3 10 13 5 1 2 4 5 2 2 1 3 3 5 4 2 4 5 5 4 4 5 5 5 5 4 2 2 3 5 4 1 6 5 4 4 4 8 13 13 12 11 7 6 5 6 6 7 7 7 7 6 8 8 7
18 17 18 20 19 17 16 15 16 17 15 12 11 7 3 2 2 2 2 3 4 2 0 1 1 3 5 4 5 5 2 2 2 2 11 12 5 1 2 4 5 2 3 2 2 5 5 1 3 2 3 5 5 4 5 4 5 4 2 0 3 2 4 5 2 5 5 3 5 6 9 13 14 11 11 7 4 6 6 5 6 6 7 7 7 7 8 8
19 18 17 18 20 18 16 13 12 14 14 13 13 8 3 4 3 2 1 1 5 3 0 0 1 2 4 2 2 3 3 1 1 4 12 11 3 2 1 5 4 2 3 3 2 1 0 2 3 3 4 5 5 4 5 4 3 2 1 1 3 4 3 3 4 6 5 2 4 5 6 10 10 7 8 6 4 6 7 6 7 6 6 7 7 6 6 7
21 19 16 17 18 18 16 12 10 13 13 13 14 11 6 5 4 3 1 0 4 4 2 2 2 2 1 1 3 3 1 1 1 4 11 8 1 2 3 4 3 3 1 1 6 5 3 2 2 5 3 4 4 3 5 3 3 2 3 3 2 2 1 3 5 7 5 3 2 5 6 6 5 3 6 4 3 5 6 5 5 4 5 6 6 6 5 6
23 21 18 17 17 17 16 9 10 15 9 6 11 14 9 5 5 5 3 3 3 5 2 1 1 2 3 2 4 1 1 0 1 4 8 6 1 1 2 2 2 3 2 2 5 3 1 1 2 5 4 4 4 0 2 4 2 4 2 4 4 3 1 3 6 7 5 4 2 5 5 6 6 3 7 5 6 6 6 6 6 6 6 5 5 6 5 5
25 22 19 18 17 18 12 4 12 17 6 4 11 15 9 4 6 4 3 5 4 5 1 1 0 1 3 2 5 0 1 3 3 3 5 6 1 1 3 1 2 2 4 3 3 1 1 2 2 4 4 5 5 1 4 5 2 2 1 3 5 5 4 3 5 5 2 3 3 4 2 5 7 6 7 5 6 8 7 6 6 6 6 6 5 6 5 6
25 24 21 17 17 17 8 3 12 12 3 6 15 14 7 5 5 3 3 5 4 4 0 1 1 2 2 2 4 1 1 5 3 2 4 5 4 1 2 1 1 1 2 3 1 1 2 3 3 4 5 4 2 2 3 5 3 2 2 4 5 5 2 1 3 3 1 3 4 4 3 2 6 7 6 4 5 7 7 6 7 6 5 6 6 6 6 5
25 25 23 17 17 15 7 6 9 6 5 12 16 13 7 6 5 2 5 3 3 1 1 2 1 2 0 1 3 3 1 3 2 1 3 4 4 3 2 2 5 3 0 3 4 4 1 2 3 4 4 2 3 3 2 3 2 2 3 3 4 4 3 4 4 1 1 3 4 4 2 0 6 7 5 3 3 6 7 8 8 6 6 6 6 7 6 6
25 26 24 19 15 10 6 9 6 3 9 16 17 13 9 6 4 3 5 1 2 1 1 1 1 2 3 2 4 4 1 2 1 3 5 3 3 4 3 2 7 6 2 3 4 3 1 2 4 5 4 3 3 0 1 2 2 2 4 4 4 4 4 4 4 2 2 3 4 4 2 0 5 7 5 2 2 6 8 8 7 7 7 6 7 7 6 6
25 25 24 21 14 9 9 8 3 3 11 16 17 14 7 4 3 6 2 3 2 1 0 1 1 2 3 2 3 4 1 1 2 3 3 1 3 6 3 3 6 7 3 5 4 1 1 1 1 2 2 3 4 2 1 2 3 4 4 4 5 4 4 3 2 3 3 3 6 5 2 0 3 6 4 3 4 6 6 5 7 7 7 7 7 6 6 5
25 24 24 20 14 11 10 6 4 7 11 13 16 12 4 2 5 5 3 4 2 2 1 2 3 3 4 2 1 3 1 2 5 3 2 2 4 5 3 2 3 4 4 4 2 2 2 1 0 0 0 3 5 3 3 3 3 4 3 3 3 4 3 3 4 4 2 4 6 4 2 1 2 6 5 5 6 5 6 7 8 8 8 7 6 6 6 5
25 24 23 19 14 11 8 6 9 11 11 12 12 7 2 1 0 3 4 4 2 2 1 1 3 3 3 1 0 2 1 1 3 3 2 1 2 1 1 3 3 1 4 3 1 3 2 1 1 1 0 2 4 3 3 3 4 4 3 4 4 4 4 2 4 2 2 5 4 3 2 1 6 9 9 9 9 8 7 7 8 8 8 7 7 6 5 5
25 24 22 18 14 11 8 9 11 10 10 10 7 5 6 2 4 5 4 3 1 1 1 2 3 2 1 1 0 1 1 1 2 2 2 1 2 3 2 3 4 2 1 2 0 2 3 4 1 1 1 0 3 3 1 1 2 3 3 3 3 1 3 3 4 3 4 3 2 3 3 3 5 7 9 12 11 8 7 7 6 7 8 7 6 6 6 7
26 23 23 18 12 9 7 8 9 7 8 7 5 5 3 2 5 4 3 4 2 1 2 2 3 4 2 1 2 2 1 1 2 2 0 2 1 2 3 3 3 4 3 1 1 2 2 5 2 2 1 1 1 3 3 3 3 3 3 4 4 4 3 4 4 3 5 3 3 3 2 3 3 4 6 8 8 7 6 7 6 6 8 7 6 6 7 7
26 23 20 14 7 6 5 5 5 4 4 4 6 4 3 4 4 2 3 4 2 1 1 2 3 3 4 3 3 2 2 2 1 2 1 1 3 3 2 4 4 3 5 3 3 2 1 6 3 1 1 1 0 1 2 3 3 2 2 4 2 3 4 2 3 4 2 2 3 2 3 5 4 7 7 4 6 7 6 6 5 7 8 5 6 7 6 6
27 24 16 9 8 7 4 3 1 1 2 5 5 2 5 4 4 3 2 2 0 2 1 2 3 1 4 4 3 3 0 1 1 1 1 2 3 4 4 4 5 6 6 5 4 2 1 5 3 2 2 2 1 1 1 1 2 1 2 2 4 3 7 4 2 0 4 1 4 1 3 6 4 7 8 6 6 8 6 5 5 7 7 4 6 7 6 6
27 25 15 10 11 7 4 2 2 5 5 6 3 5 5 4 5 5 2 0 1 2 3 1 2 2 3 3 3 3 0 1 1 1 2 2 3 5 4 3 4 7 5 4 4 3 3 4 4 1 0 2 0 1 2 1 2 3 2 4 3 2 5 4 1 3 4 1 4 1 3 6 4 5 7 8 7 8 7 6 5 7 6 5 7 8 7 7
25 21 13 9 12 8 3 1 5 7 6 4 3 4 3 4 4 4 3 3 0 2 3 2 4 2 2 2 3 2 1 1 1 1 2 2 3 4 4 2 1 1 2 4 2 2 3 2 6 1 1 2 2 1 1 2 1 2 2 2 1 3 1 1 2 1 0 2 4 4 4 4 4 5 6 6 6 7 7 5 5 8 8 7 8 8 8 7
18 12 6 7 13 9 1 3 5 6 5 3 4 4 3 4 4 3 3 3 2 3 1 4 3 1 2 3 2 2 2 3 3 2 2 2 3 3 4 2 1 1 2 4 3 2 3 1 5 2 1 1 2 0 3 1 1 1 1 2 1 3 4 2 2 3 3 2 3 4 5 4 7 6 6 8 9 7 7 5 7 10 9 8 8 7 7 6
10 4 3 9 15 8 3 4 3 5 3 4 4 3 2 2 4 3 2 1 1 2 2 3 2 1 3 3 3 2 1 2 4 2 2 2 3 4 2 2 3 1 1 2 3 1 3 1 4 4 3 1 1 3 5 5 3 2 1 1 1 1 2 1 0 2 4 3 2 1 4 7 7 5 8 11 10 8 7 7 9 9 9 9 8 7 7 6
6 1 3 10 17 8 2 3 1 3 2 3 2 2 2 1 2 2 1 1 1 1 1 3 4 2 2 2 2 3 2 2 3 2 3 3 3 3 1 1 3 5 2 2 2 2 2 3 3 2 2 3 4 4 3 4 3 4 4 4 4 3 4 2 3 2 2 3 4 4 2 9 7 5 7 9 8 7 7 7 8 8 10 10 8 9 8 7
2 1 5 14 19 11 2 1 2 1 3 3 3 3 2 1 1 1 1 2 1 1 1 1 4 3 3 3 3 3 3 2 3 3 3 4 5 4 1 2 0 2 4 3 3 3 2 4 3 3 4 5 5 3 0 1 1 1 2 2 3 4 5 5 4 3 1 2 2 4 1 8 7 5 7 8 7 7 6 7 8 8 9 8 8 9 7 7
2 3 11 20 20 9 2 1 4 1 2 4 2 2 1 1 2 1 1 1 1 1 0 1 3 4 4 3 2 3 4 3 4 5 4 4 4 3 1 0 1 1 3 2 3 2 2 3 2 3 4 3 4 3 1 1 2 0 3 2 3 3 3 5 5 4 3 4 3 3 2 8 7 3 5 6 6 7 6 7 8 9 7 7 8 8 6 6
2 4 7 14 14 5 1 3 3 2 5 3 1 2 2 1 4 4 3 4 3 3 2 2 3 4 5 2 3 4 5 4 5 6 4 3 3 1 1 0 2 1 2 1 2 2 2 2 3 1 4 5 6 5 3 2 1 3 4 2 3 3 6 4 2 3 0 5 7 5 4 9 7 3 4 6 5 7 8 7 7 8 8 7 7 7 6 6
3 2 2 7 8 2 3 4 4 3 4 2 2 5 3 2 3 4 5 5 4 4 3 2 2 2 2 2 2 2 4 4 4 3 2 2 3 1 2 0 1 0 2 2 2 1 2 3 4 4 4 5 3 3 3 3 2 2 2 3 5 5 8 5 2 3 3 5 7 6 7 9 8 5 5 7 6 6 8 6 6 7 8 7 7 7 7 6
1 1 2 4 3 1 2 0 3 2 3 1 3 4 5 5 4 1 4 5 3 4 3 2 1 1 1 2 1 3 5 5 2 1 2 3 4 2 1 1 1 1 3 3 3 1 2 2 4 7 8 8 7 6 5 3 4 3 4 5 6 7 7 5 4 4 5 4 4 8 9 7 14 13 9 7 7 7 7 7 6 7 8 8 7 7 7 7
0 1 1 2 3 2 2 3 1 2 2 3 2 2 5 7 5 1 3 3 1 2 2 2 3 4 3 3 3 4 5 4 2 1 3 4 3 3 0 1 1 3 3 2 2 2 4 2 6 7 9 9 6 5 4 4 3 5 6 6 7 8 6 7 7 7 6 7 5 11 7 5 16 19 13 9 8 8 8 8 8 8 7 8 7 7 8 8
1 1 1 1 1 1 1 2 2 4 4 4 2 1 4 6 5 4 2 1 1 2 4 3 4 8 8 6 5 4 3 3 3 3 3 3 2 2 1 1 2 3 3 0 2 3 4 4 5 5 8 9 5 3 4 4 3 5 7 7 9 10 11 14 14 9 8 7 10 8 6 8 14 18 16 11 7 8 10 9 8 8 8 8 8 7 9 10
1 2 1 2 1 2 2 2 2 4 7 4 2 4 7 8 8 5 1 1 2 3 5 7 7 8 8 7 6 6 5 5 5 3 3 4 4 2 2 3 2 1 2 2 1 1 3 3 3 3 5 8 5 2 3 5 4 4 6 8 10 13 17 18 14 10 9 11 13 7 2 7 15 18 19 12 5 7 9 7 6 9 9 9 9 9 11 12
2 2 2 2 3 3 4 4 1 2 4 4 5 7 7 8 9 6 1 3 5 4 4 9 10 7 7 7 8 13 13 9 7 6 5 6 5 3 4 4 2 1 1 2 1 2 3 3 1 3 2 8 4 2 1 5 5 7 7 5 8 11 12 10 10 9 8 10 15 11 6 11 19 18 15 12 5 6 8 8 9 10 10 10 11 11 12 13
6 9 7 4 4 3 3 3 2 2 4 4 6 5 3 6 8 6 4 7 10 8 5 8 9 5 5 8 12 17 13 7 8 9 7 7 6 4 4 4 5 5 3 3 2 2 4 2 2 4 1 7 3 3 2 1 2 7 7 6 11 11 7 7 9 8 9 11 12 9 5 12 18 11 5 7 6 6 9 11 10 9 9 9 11 12 12 12
7 10 9 4 5 4 4 3 1 4 6 4 4 4 4 6 6 6 6 6 8 10 9 8 7 4 5 11 15 16 11 8 10 8 3 3 3 2 3 3 5 7 6 5 2 2 4 3 1 3 3 6 5 3 1 3 3 7 7 12 17 12 7 8 8 8 12 12 8 7 10 14 13 7 6 10 9 6 9 10 8 8 9 10 11 11 11 11
Wind_Direction
17 15 12 12 16 18 21 22 22 23 24 25 23 18 11 6 3 356 328 285 252 234 225 221 261 292 299 308 308 319 332 333 45 48 58 13 354 343 331 321 312 306 307 313 341 356 36 57 1 1 20 86 25 336 58 45 71 56 99 111 96 160 191 173 181 194 153 152 194 209 191 165 210 232 227 345 202 251 264 266 255 265 256 241 242 245 255 271
21 16 9 7 7 8 11 14 16 15 16 18 20 21 17 12 6 3 350 305 264 242 236 239 263 279 289 301 302 316 321 259 354 37 34 2 353 339 321 312 304 290 304 328 356 16 51 6 341 12 37 76 360 332 93 36 72 90 132 77 187 198 189 174 176 184 160 82 145 194 198 179 200 192 131 247 269 311 269 265 246 259 263 253 248 243 244 247
23 20 13 8 4 3 3 6 10 10 10 11 13 19 19 16 12 10 4 344 313 268 250 252 262 272 286 295 305 316 306 217 279 4 4 358 349 333 320 310 298 281 313 349 360 12 46 296 347 31 43 68 327 348 57 12 40 150 119 67 235 203 194 210 182 180 205 136 132 185 169 186 233 194 112 219 262 286 243 244 219 236 252 252 248 238 238 238
18 17 14 10 5 1 359 359 2 2 5 6 7 12 15 15 12 10 4 350 337 313 272 262 265 274 287 298 319 316 203 99 357 322 355 355 346 334 323 306 297 280 312 352 356 2 22 113 82 56 63 349 328 22 53 340 294 114 95 141 208 166 108 201 197 206 222 159 139 148 120 216 249 193 202 183 250 271 241 231 216 225 243 249 254 230 230 230
15 13 11 8 5 0 356 354 354 356 358 1 3 4 8 10 6 3 358 346 336 331 299 267 268 282 295 313 334 334 127 53 330 341 358 353 346 336 325 309 292 263 314 351 351 22 48 110 90 53 51 8 340 24 49 331 41 67 49 203 201 137 103 204 220 212 154 109 110 124 135 215 215 171 208 170 213 247 230 219 213 226 244 255 267 235 221 220
13 11 9 4 2 359 355 351 349 350 351 355 358 358 0 2 1 358 354 348 340 340 328 283 285 304 309 322 355 66 106 54 328 353 357 353 347 339 335 317 274 250 313 344 352 41 75 70 78 62 47 46 9 44 40 330 22 80 12 324 229 194 124 296 277 245 147 116 132 163 183 176 97 274 226 182 227 233 204 175 193 225 248 274 282 236 217 220
13 11 10 6 1 357 354 351 347 346 346 349 352 353 354 354 357 356 354 353 347 351 356 339 330 321 301 303 334 40 75 202 336 353 355 357 347 340 348 323 270 259 288 318 5 96 115 74 100 136 83 53 176 104 14 329 32 84 137 292 234 190 160 272 285 215 168 140 178 183 147 145 173 247 303 219 239 242 251 264 246 254 267 290 284 240 229 231
13 10 8 7 3 359 354 350 347 343 341 343 346 349 348 348 351 353 356 355 350 349 348 344 335 313 274 260 213 11 19 281 338 352 353 359 350 348 358 332 264 260 272 282 350 147 143 119 171 152 84 45 174 118 1 345 38 70 149 205 120 131 311 291 45 92 148 152 196 144 165 221 201 199 309 254 252 254 257 265 268 271 278 275 264 255 247 243
13 9 6 5 4 1 355 350 347 343 339 337 340 343 343 344 346 351 356 355 351 332 329 337 341 321 223 180 102 20 315 285 347 351 352 359 359 0 4 352 291 264 247 245 332 139 172 191 193 175 143 157 107 67 345 18 37 83 146 164 100 333 327 338 86 35 19 202 115 184 280 276 235 254 274 258 266 287 271 263 271 276 275 264 258 256 249 246
8 7 5 2 1 0 357 352 347 344 340 334 334 337 338 339 340 346 353 354 349 327 325 333 351 17 182 176 73 37 291 349 354 351 356 359 6 18 20 19 11 288 82 350 28 121 191 202 172 149 133 131 83 42 349 69 119 108 129 127 82 354 322 23 35 359 345 251 72 249 279 311 317 309 271 265 282 346 345 296 289 282 262 260 259 260 252 248
2 3 3 359 357 357 356 352 347 344 340 335 331 331 333 334 334 338 346 352 348 333 331 337 355 26 154 115 93 148 310 16 354 358 359 357 23 36 32 29 29 48 46 35 45 59 262 151 135 121 120 145 98 40 23 118 121 112 134 116 16 4 9 27 24 0 347 322 95 202 264 311 19 225 241 251 304 5 343 299 289 270 258 265 263 265 258 249
356 357 359 358 355 353 353 351 347 344 340 337 331 326 327 328 328 330 337 345 345 337 334 344 346 332 45 66 112 184 360 6 352 359 358 4 35 36 32 29 34 49 38 38 15 331 130 141 109 84 314 142 117 38 115 124 101 154 135 100 343 4 36 7 4 359 350 359 142 171 308 305 202 227 242 265 344 338 322 289 287 272 261 271 265 270 261 253
352 353 354 355 353 351 350 348 345 342 340 338 331 325 323 323 325 324 328 337 339 331 316 334 339 327 57 49 159 33 360 352 349 351 1 19 30 30 30 26 36 49 48 51 41 54 128 152 102 101 117 105 121 187 119 73 51 277 21 80 357 2 12 351 349 340 341 118 82 65 322 291 237 241 254 295 342 339 328 300 303 302 290 292 282 282 271 261
350 349 350 351 352 350 348 346 344 339 339 338 332 324 318 320 322 319 322 329 332 322 302 315 335 350 76 259 236 15 342 331 353 359 15 23 22 3 23 28 38 42 50 57 59 79 103 120 99 97 89 90 141 134 54 16 24 22 5 59 35 9 299 326 356 351 353 99 35 63 273 280 269 269 269 285 344 9 334 306 308 308 303 304 295 291 283 273
349 347 347 348 349 349 346 345 343 339 339 338 332 324 317 319 318 318 320 323 327 319 296 294 319 355 78 349 239 354 340 337 1 4 8 10 15 360 360 48 69 50 61 62 73 86 93 104 84 75 73 27 72 79 28 357 15 37 30 312 356 32 273 311 356 19 351 278 16 69 238 278 282 281 274 281 345 1 325 301 307 304 300 303 300 300 294 288
349 347 345 345 346 347 345 344 343 339 338 337 332 322 315 315 314 315 317 320 321 315 303 283 319 76 105 355 257 355 354 7 356 356 358 360 9 5 355 74 82 59 86 70 79 91 51 60 69 74 128 45 53 79 41 13 357 2 59 255 287 310 295 316 342 347 304 274 344 30 257 281 281 279 285 313 339 340 315 297 301 299 298 301 303 307 304 303
349 348 345 344 344 345 344 344 343 339 338 338 333 323 314 310 312 316 322 323 306 314 358 226 16 73 103 3 136 336 334 331 341 345 353 358 5 10 9 87 75 52 91 54 40 40 23 43 81 296 60 52 58 86 53 4 317 327 27 343 259 237 282 310 311 323 357 347 321 356 261 260 272 286 298 310 340 333 305 295 297 299 302 302 306 308 308 309
346 346 345 344 343 345 344 343 343 340 338 338 335 324 309 305 307 316 341 337 283 291 46 55 39 74 329 349 307 297 309 309 328 342 355 357 359 17 28 59 67 24 34 22 22 32 15 31 81 37 24 22 29 75 107 223 227 266 302 326 317 301 253 271 277 315 10 10 321 337 289 272 283 293 298 304 356 336 292 288 292 294 298 300 311 311 313 317
342 344 345 344 344 345 344 343 344 342 339 342 342 327 307 310 305 307 23 33 21 250 248 292 16 141 236 313 300 304 309 303 322 347 358 358 351 358 31 45 52 47 43 339 353 26 30 42 66 83 340 12 24 105 148 187 161 161 192 154 189 291 271 257 267 291 358 347 305 299 276 284 295 299 301 306 346 327 288 294 291 291 304 308 320 319 321 323
340 340 342 344 344 344 345 345 345 345 345 345 345 339 332 350 351 330 2 33 99 157 131 219 214 232 278 306 312 323 320 288 314 3 5 357 351 357 17 27 32 45 61 227 296 10 73 76 92 199 197 181 192 151 121 124 111 110 109 96 180 241 285 273 286 303 335 341 290 290 291 285 287 288 291 304 330 326 304 315 306 310 324 317 325 325 324 319
341 338 339 341 343 345 346 346 348 352 350 347 352 9 92 78 21 322 326 346 213 163 106 221 197 272 282 282 315 339 358 292 298 9 10 357 3 100 309 24 50 29 3 247 266 353 62 85 202 210 190 169 160 134 100 89 76 82 115 66 307 235 267 267 270 303 343 16 288 345 334 292 284 286 285 304 327 311 298 312 310 316 319 314 324 319 316 313
344 338 336 337 341 345 345 348 354 356 358 7 28 56 88 63 40 305 308 315 272 207 111 282 185 289 285 277 309 345 45 14 308 336 3 359 22 75 295 52 88 212 346 7 284 360 34 139 209 197 160 110 79 81 80 83 85 72 134 98 325 278 282 293 324 322 350 6 287 353 347 293 289 290 283 284 269 264 266 259 267 285 302 313 323 318 318 322
348 341 337 335 337 341 344 349 357 4 17 39 51 56 26 15 14 311 276 282 291 292 282 226 136 297 313 313 321 11 55 43 265 309 354 1 22 48 88 84 89 165 18 25 158 102 29 213 173 144 142 107 65 46 74 85 82 71 141 127 294 302 351 310 314 334 337 340 288 321 317 287 298 300 277 264 242 269 278 262 253 241 253 284 302 301 298 311
351 344 340 335 334 339 342 343 2 13 24 48 49 34 6 351 353 350 34 42 299 298 268 224 176 189 209 28 4 26 78 115 220 303 349 12 118 37 89 121 106 118 12 38 135 138 197 240 131 111 99 120 105 43 82 94 343 318 176 150 231 275 10 255 295 330 337 26 350 325 320 296 316 316 265 286 326 307 308 318 308 273 257 279 306 303 276 281
355 347 342 339 334 337 340 342 7 5 6 50 32 10 1 341 341 6 54 55 322 298 296 234 225 178 168 61 7 12 149 8 269 285 339 17 135 31 73 138 130 148 219 157 118 115 188 257 142 108 60 86 116 357 167 142 323 307 215 164 169 164 143 304 328 349 8 19 6 16 1 298 316 307 253 296 345 311 324 352 322 303 308 320 325 318 307 302
357 350 345 342 337 339 345 350 353 350 353 46 2 349 352 344 346 7 75 54 325 281 301 205 220 157 179 8 350 56 108 321 304 305 349 13 352 149 115 4 16 154 185 149 111 105 119 39 64 119 105 79 84 259 224 145 110 309 249 150 134 113 88 15 1 18 18 312 313 53 81 263 313 306 258 306 336 302 321 334 298 294 311 316 307 304 313 318
358 354 348 344 343 348 1 352 345 352 9 353 345 342 342 340 342 350 64 37 309 256 142 270 310 81 192 309 339 118 201 296 325 357 11 14 342 45 113 267 48 126 184 140 154 254 121 70 51 86 94 88 99 238 211 134 116 259 222 122 107 90 89 106 61 59 236 283 330 31 101 230 296 279 264 313 314 301 315 299 288 293 291 295 298 296 301 305
356 355 350 346 345 352 14 359 355 23 4 337 341 341 335 334 324 352 77 56 294 259 85 294 332 49 335 319 25 84 225 307 41 300 334 19 349 17 44 210 156 149 17 133 221 263 80 134 173 123 100 145 210 216 190 131 88 236 191 120 102 105 124 127 98 85 303 343 325 330 52 220 269 275 305 344 273 278 280 260 262 272 278 290 297 296 295 300
354 355 351 346 341 346 1 349 350 16 344 340 342 334 320 319 319 48 79 140 282 41 69 346 21 345 352 26 21 34 19 4 79 284 326 23 6 33 70 165 131 121 40 86 180 229 49 202 195 147 145 207 207 173 181 116 74 172 148 93 68 74 79 82 93 113 41 5 257 267 26 17 266 283 314 355 263 250 248 247 246 253 270 280 284 290 295 306
349 353 351 346 339 334 333 341 355 348 340 340 339 331 311 314 30 70 79 231 277 346 248 359 300 312 24 65 351 353 48 328 321 331 348 28 11 30 94 159 106 103 27 33 89 145 330 298 195 123 152 174 138 92 55 79 97 136 118 75 55 41 50 59 60 95 61 313 251 253 331 8 284 285 249 213 234 215 201 236 252 256 271 270 267 272 280 295
342 350 351 346 337 329 330 348 1 335 335 337 337 336 320 337 63 103 203 241 268 303 341 351 317 13 56 128 286 339 47 336 327 2 18 356 13 26 71 114 88 71 7 8 48 339 352 21 280 72 113 130 112 72 41 51 69 101 98 65 41 358 18 32 355 37 92 265 261 261 287 152 238 268 248 239 260 234 187 198 217 227 245 258 265 264 266 278
337 343 348 344 332 322 315 311 322 325 331 338 342 357 54 5 63 168 239 294 319 299 3 350 312 21 47 104 255 327 359 342 355 56 96 33 17 318 154 163 174 14 326 280 277 313 288 223 274 9 313 144 123 86 33 16 32 70 84 67 48 345 356 352 316 337 209 244 270 279 297 234 233 251 257 261 266 249 219 206 206 214 225 239 256 266 275 287
333 338 342 337 325 316 301 295 310 321 328 338 356 45 76 111 238 219 235 285 303 290 35 35 334 342 14 19 269 301 300 238 18 59 145 100 11 287 257 196 170 133 272 233 261 323 295 297 317 139 277 103 136 146 153 348 72 123 145 113 114 88 29 306 281 292 270 262 283 283 295 287 275 267 244 245 253 238 226 232 226 223 226 234 253 274 291 292
334 336 334 329 319 307 299 297 305 320 330 350 48 72 78 212 247 246 245 252 257 2 39 50 353 348 4 262 260 256 207 259 29 80 82 42 43 277 270 236 186 114 102 148 213 180 247 285 272 166 250 7 126 176 170 143 124 174 173 125 140 152 154 248 241 242 269 294 306 295 287 210 239 269 224 228 259 259 242 249 252 251 244 248 277 286 284 284
334 333 330 330 329 316 307 294 298 322 337 26 64 90 174 221 254 262 252 252 266 10 21 38 51 19 329 299 299 285 201 259 17 90 65 97 180 206 216 211 200 136 114 162 239 145 190 263 272 312 284 86 331 245 135 104 118 211 150 104 164 179 145 176 189 185 205 329 308 276 241 216 221 277 278 278 288 277 260 253 252 254 248 252 285 280 273 276
334 336 334 324 324 318 306 305 289 127 82 77 74 165 207 217 213 202 232 272 331 128 119 357 62 79 298 296 316 331 24 251 359 70 285 236 207 211 214 214 197 177 151 161 211 148 142 277 303 354 335 61 111 237 29 52 185 178 128 171 229 166 113 115 196 358 70 42 283 258 262 289 318 298 305 350 323 296 291 271 231 230 239 249 266 266 268 267
337 339 328 314 328 313 268 311 135 143 97 89 134 216 221 219 195 183 194 277 288 125 111 317 253 196 254 277 293 311 359 276 319 84 246 266 245 207 214 252 201 193 188 164 214 203 156 264 304 48 67 346 323 175 352 303 155 119 170 221 227 112 94 101 152 357 42 225 279 313 264 293 326 297 315 342 317 291 287 272 247 238 238 244 251 255 259 258
336 330 312 318 343 330 279 276 146 133 89 96 196 232 212 213 206 175 155 143 123 62 86 227 237 196 192 226 277 275 172 236 254 181 208 259 260 201 184 230 145 185 227 152 211 266 134 243 296 359 172 309 10 72 313 310 90 114 199 221 123 139 135 75 137 192 285 254 285 307 298 273 228 236 288 300 275 269 278 272 247 237 230 234 246 254 263 265
336 327 308 346 354 346 26 147 149 104 79 147 207 237 216 229 250 220 171 147 120 101 145 243 260 352 177 180 225 240 199 207 198 190 187 189 253 227 186 201 119 352 292 140 164 239 113 181 281 291 234 285 18 130 213 225 39 38 326 338 22 156 168 162 143 164 194 230 270 311 330 281 228 212 221 242 244 245 254 246 227 225 224 229 235 245 258 260
350 342 297 356 3 0 115 130 108 83 102 189 196 216 229 259 269 260 215 213 163 149 199 226 243 283 229 199 200 203 193 196 180 191 228 211 255 257 222 167 137 147 327 77 125 154 78 136 252 288 308 251 206 215 197 184 164 135 159 245 243 149 141 168 32 128 145 164 196 255 311 274 249 200 201 234 245 232 222 224 229 228 227 233 234 239 248 249
351 328 270 359 6 358 111 97 70 110 155 212 205 218 232 242 270 305 345 306 277 240 196 168 181 214 218 228 240 197 170 199 188 206 247 230 233 251 282 66 146 158 125 82 147 188 135 154 192 266 281 217 235 250 210 199 186 164 184 199 186 156 124 135 280 294 113 151 184 159 262 273 258 192 205 234 241 234 225 223 235 237 231 234 240 238 237 240
325 204 279 328 339 334 36 90 270 118 151 212 213 211 201 144 245 260 67 35 327 258 354 149 187 195 192 209 226 185 169 199 199 203 238 229 224 234 287 24 358 152 128 147 210 210 149 116 130 228 222 217 252 282 308 214 146 143 222 213 163 148 131 144 215 245 135 141 158 115 205 271 260 198 211 236 242 245 235 222 236 244 237 240 249 245 240 241
185 258 290 307 314 318 42 273 286 326 229 248 252 221 196 137 180 191 153 202 234 191 301 259 201 204 223 205 167 184 199 201 192 196 226 240 238 240 207 91 290 157 118 145 202 183 131 110 135 269 294 309 306 323 21 43 63 185 255 204 154 168 148 152 176 178 155 164 151 107 247 269 274 236 222 244 259 268 257 230 235 249 253 253 252 250 250 252
256 267 282 293 291 293 151 223 238 245 254 276 304 267 281 203 182 176 183 208 205 167 192 243 208 216 233 177 138 194 209 210 216 212 212 221 233 223 120 313 276 201 148 181 186 176 203 169 122 50 329 331 339 345 338 321 207 221 240 203 181 136 103 116 145 105 191 203 163 146 239 256 270 293 276 269 272 276 267 235 221 239 255 258 253 256 261 266
298 267 264 279 275 253 197 197 159 200 246 278 276 258 260 260 223 190 193 208 200 174 190 261 233 210 214 128 109 215 209 221 243 232 196 214 254 274 95 311 285 236 289 298 294 263 209 179 137 141 206 240 249 261 256 235 195 215 227 197 197 162 136 150 136 115 233 225 153 160 230 254 279 295 279 272 275 279 271 249 224 235 249 258 259 262 264 266
334 302 312 314 313 164 221 255 94 194 241 225 284 257 210 234 275 207 187 209 198 165 182 266 222 116 98 149 213 251 231 224 225 251 238 231 260 301 116 155 186 248 294 319 319 357 94 196 203 181 201 213 202 213 215 154 134 190 211 192 194 192 165 136 113 161 200 168 165 224 233 267 288 278 255 255 262 260 263 263 261 252 251 256 253 256 263 262
320 287 265 340 339 333 317 340 35 251 243 185 225 246 201 224 263 250 195 214 210 164 210 229 171 188 208 172 199 246 233 216 184 193 231 230 264 296 204 154 230 226 244 296 285 107 97 262 238 202 224 231 199 197 188 140 168 197 188 182 189 191 169 160 191 202 151 124 233 251 218 226 272 271 260 249 243 250 257 254 259 259 253 254 254 259 269 265
256 294 136 67 319 270 305 294 233 236 244 214 212 251 219 225 226 217 219 256 325 196 204 223 202 209 210 175 183 237 227 211 225 211 213 230 255 296 300 263 239 191 166 218 298 120 133 241 231 192 243 255 227 197 175 173 216 195 178 186 182 178 184 199 213 200 148 173 239 243 163 196 253 268 270 256 218 233 250 239 248 266 263 263 267 269 270 265
285 283 298 356 297 228 234 263 228 232 241 234 245 243 234 233 227 223 212 97 272 233 200 228 231 209 211 197 192 227 222 213 240 227 197 226 223 201 238 245 237 152 143 157 251 167 165 232 225 179 260 275 265 239 196 200 226 223 206 196 181 187 200 208 217 207 192 224 250 254 234 261 264 264 270 270 206 210 247 249 253 263 261 263 269 268 267 265
303 297 310 338 300 276 261 256 213 235 244 219 233 239 232 239 241 249 245 187 243 263 186 224 235 201 204 212 210 233 231 207 222 231 197 212 228 203 215 219 164 99 192 177 212 235 203 233 199 114 291 285 291 10 235 202 211 234 237 214 199 209 214 220 231 224 216 244 259 269 299 285 270 263 268 275 243 212 248 257 249 250 253 261 267 265 263 264
295 305 312 301 278 272 255 247 178 218 245 217 225 241 237 241 235 236 247 218 225 232 190 215 236 208 207 225 226 243 245 210 227 241 206 204 228 215 220 215 149 142 181 195 171 170 189 235 25 83 262 276 313 19 341 144 211 247 258 245 227 215 200 213 222 207 202 219 241 265 281 258 262 272 283 270 247 217 240 252 253 256 253 249 253 256 256 256
311 308 311 297 271 247 231 253 193 218 245 227 212 223 237 243 219 210 248 241 222 230 219 208 208 179 224 245 238 239 243 232 240 249 202 196 229 214 227 218 156 146 166 177 159 146 168 178 136 132 209 270 303 344 22 38 308 260 235 223 221 208 198 228 233 214 209 205 206 227 234 241 259 289 295 275 263 241 243 246 246 255 255 245 240 244 250 253